Location: Dürabuch
(48.2640°N, 11.2185°E)
Time: 19:04:45
(UTC+00:00)

CZ-2D R/B - Pass Details

Date: 29 May 2025
Orbit: 790 x 841 km, 98.8° (Epoch: 16 June)

Event Time Altitude Azimuth Distance (km) Brightness Sun altitude
Rises 01:30:44 0° 16° (NNE) 3,410 6.9 -13.6°
Reaches altitude 10° 01:33:08 10° 20° (NNE) 2,471 6.0 -13.3°
Maximum altitude 01:38:36 67° 103° (ESE) 912 2.5 -12.8°
Enters shadow 01:43:37 12° 185° (S) 2,295 4.0 -12.4°
